DEQWR EDMO-EDDN

Flight info

Callsign DEQWR
Flight time 0h 37m
Altitude 3500
Route DCT
Aircraft BT36/L-BDFGLORY/S

Departure

Time 2026-05-04 18:45
Airport Oberpfaffenhofen Airport (EDMO)

Arrival

Time 2026-05-04 19:22
Airport Nuremberg Airport (EDDN)
Time Latitude Longitude Altitude Speed Heading
2026-05-04 18:20 48.08752 11.28426 1919 ft 0 kts 24°
2026-05-04 18:39 48.08759 11.28431 1918 ft 5 kts 33°
2026-05-04 18:39 48.08801 11.28522 1919 ft 16 kts 67°
2026-05-04 18:40 48.08847 11.28735 1919 ft 26 kts 77°
2026-05-04 18:40 48.08863 11.29014 1919 ft 20 kts 90°
2026-05-04 18:40 48.08863 11.29040 1919 ft 0 kts 92°
2026-05-04 18:43 48.08863 11.29097 1919 ft 12 kts 89°
2026-05-04 18:43 48.08852 11.29269 1923 ft 16 kts 142°
2026-05-04 18:43 48.08793 11.29206 1922 ft 9 kts 223°
2026-05-04 18:44 48.08572 11.28901 1924 ft 73 kts 223°
2026-05-04 18:44 48.08283 11.28520 1989 ft 88 kts 223°
2026-05-04 18:44 48.07669 11.27703 2299 ft 89 kts 234°
2026-05-04 18:44 48.07390 11.26822 2433 ft 102 kts 255°
2026-05-04 18:45 48.07229 11.25745 2647 ft 111 kts 268°
2026-05-04 18:45 48.07496 11.24620 2791 ft 126 kts 305°
2026-05-04 18:45 48.07951 11.23434 2922 ft 135 kts 297°
2026-05-04 18:45 48.08203 11.22016 2949 ft 148 kts 276°
2026-05-04 18:46 48.08267 11.20427 2939 ft 158 kts 272°
2026-05-04 18:46 48.08299 11.18856 2935 ft 164 kts 272°
2026-05-04 18:46 48.08339 11.17147 3017 ft 164 kts 271°
2026-05-04 18:46 48.08333 11.15427 3021 ft 168 kts 270°
2026-05-04 18:47 48.08687 11.13803 3050 ft 166 kts 309°
2026-05-04 18:47 48.09616 11.12839 2996 ft 167 kts 341°
2026-05-04 18:47 48.10717 11.12290 2955 ft 167 kts 340°
2026-05-04 18:47 48.11792 11.11626 2932 ft 168 kts 341°
2026-05-04 18:48 48.12893 11.11022 2938 ft 168 kts 341°
2026-05-04 18:48 48.13983 11.10386 2926 ft 168 kts 340°
2026-05-04 18:48 48.15045 11.09652 2927 ft 167 kts 336°
2026-05-04 18:48 48.16052 11.08897 3078 ft 158 kts 336°
2026-05-04 18:49 48.16945 11.08168 3084 ft 161 kts 331°
2026-05-04 18:49 48.17863 11.07262 3230 ft 155 kts 329°
2026-05-04 18:49 48.18743 11.06405 3376 ft 151 kts 330°
2026-05-04 18:49 48.19632 11.05595 3521 ft 148 kts 331°
2026-05-04 18:50 48.20518 11.04831 3664 ft 147 kts 332°
2026-05-04 18:50 48.21425 11.04053 3684 ft 153 kts 332°
2026-05-04 18:50 48.22365 11.03266 3696 ft 158 kts 332°
2026-05-04 18:50 48.23341 11.02450 3706 ft 163 kts 332°
2026-05-04 18:51 48.24339 11.01617 3703 ft 165 kts 332°
2026-05-04 18:51 48.25347 11.00771 3711 ft 167 kts 332°
2026-05-04 18:51 48.26365 10.99917 3699 ft 168 kts 332°
2026-05-04 18:51 48.27387 10.99058 3715 ft 169 kts 332°
2026-05-04 18:52 48.28366 10.98236 3703 ft 170 kts 332°
2026-05-04 18:52 48.29382 10.97379 3699 ft 170 kts 332°
2026-05-04 18:52 48.30352 10.96562 3704 ft 170 kts 332°
2026-05-04 18:52 48.31385 10.95694 3703 ft 170 kts 332°
2026-05-04 18:53 48.32421 10.94828 3709 ft 170 kts 332°
2026-05-04 18:53 48.33456 10.93960 3700 ft 170 kts 332°
2026-05-04 18:53 48.34488 10.93092 3697 ft 170 kts 332°
2026-05-04 18:53 48.35508 10.92246 3692 ft 170 kts 335°
2026-05-04 18:54 48.36631 10.91638 3694 ft 169 kts 347°
2026-05-04 18:54 48.37766 10.91200 3685 ft 168 kts 347°
2026-05-04 18:54 48.38896 10.90734 3690 ft 168 kts 346°
2026-05-04 18:54 48.40024 10.90269 3693 ft 168 kts 347°
2026-05-04 18:55 48.41152 10.89808 3687 ft 167 kts 346°
2026-05-04 18:55 48.43355 10.88906 3694 ft 168 kts 346°
2026-05-04 18:55 48.44497 10.88441 3696 ft 168 kts 347°
2026-05-04 18:56 48.45626 10.87981 3705 ft 168 kts 347°
2026-05-04 18:56 48.46698 10.87545 3698 ft 169 kts 346°
2026-05-04 18:56 48.47831 10.87082 3705 ft 169 kts 346°
2026-05-04 18:56 48.48970 10.86619 3705 ft 170 kts 346°
2026-05-04 18:57 48.50109 10.86153 3706 ft 170 kts 346°
2026-05-04 18:57 48.51252 10.85680 3700 ft 171 kts 346°
2026-05-04 18:57 48.52399 10.85205 3705 ft 171 kts 346°
2026-05-04 18:57 48.53543 10.84731 3706 ft 171 kts 346°
2026-05-04 18:58 48.54653 10.84273 3705 ft 171 kts 346°
2026-05-04 18:58 48.55786 10.83804 3705 ft 171 kts 346°
2026-05-04 18:58 48.56935 10.83329 3708 ft 171 kts 346°
2026-05-04 18:58 48.58081 10.82859 3704 ft 171 kts 346°
2026-05-04 18:59 48.59226 10.82391 3705 ft 170 kts 346°
2026-05-04 18:59 48.60333 10.81934 3708 ft 170 kts 346°
2026-05-04 18:59 48.61450 10.81473 3711 ft 170 kts 346°
2026-05-04 18:59 48.62594 10.81005 3717 ft 170 kts 346°
2026-05-04 19:00 48.63735 10.80539 3708 ft 170 kts 346°
2026-05-04 19:00 48.64875 10.80070 3707 ft 170 kts 347°
2026-05-04 19:00 48.65999 10.79609 3716 ft 170 kts 346°
2026-05-04 19:00 48.67138 10.79142 3720 ft 170 kts 347°
2026-05-04 19:01 48.68279 10.78675 3721 ft 170 kts 346°
2026-05-04 19:01 48.69421 10.78206 3719 ft 170 kts 347°
2026-05-04 19:01 48.70560 10.77738 3716 ft 170 kts 346°
2026-05-04 19:01 48.71703 10.77272 3715 ft 169 kts 348°
2026-05-04 19:02 48.72857 10.77236 3710 ft 166 kts 16°
2026-05-04 19:02 48.73870 10.78037 3717 ft 165 kts 31°
2026-05-04 19:02 48.74898 10.78809 3713 ft 165 kts 25°
2026-05-04 19:02 48.75944 10.79467 3721 ft 165 kts 23°
2026-05-04 19:03 48.77022 10.80128 3728 ft 165 kts 24°
2026-05-04 19:03 48.78086 10.80794 3725 ft 166 kts 24°
2026-05-04 19:03 48.79148 10.81478 3723 ft 166 kts 25°
2026-05-04 19:03 48.80208 10.82174 3725 ft 166 kts 25°
2026-05-04 19:04 48.81246 10.82867 3722 ft 165 kts 25°
2026-05-04 19:04 48.82299 10.83573 3725 ft 165 kts 25°
2026-05-04 19:04 48.83348 10.84281 3718 ft 165 kts 25°
2026-05-04 19:04 48.84397 10.84991 3727 ft 165 kts 25°
2026-05-04 19:05 48.85445 10.85701 3730 ft 165 kts 25°
2026-05-04 19:05 48.86495 10.86414 3724 ft 165 kts 25°
2026-05-04 19:05 48.87543 10.87127 3728 ft 165 kts 25°
2026-05-04 19:05 48.88590 10.87839 3720 ft 165 kts 25°
2026-05-04 19:06 48.89631 10.88546 3718 ft 164 kts 25°
2026-05-04 19:06 48.90658 10.89245 3709 ft 163 kts 25°
2026-05-04 19:06 48.91693 10.89949 3711 ft 162 kts 25°
2026-05-04 19:06 48.92722 10.90649 3719 ft 162 kts 25°
2026-05-04 19:07 48.93751 10.91348 3724 ft 162 kts 25°
2026-05-04 19:07 48.94754 10.92030 3725 ft 163 kts 25°
2026-05-04 19:07 48.95789 10.92732 3730 ft 163 kts 25°
2026-05-04 19:07 48.96819 10.93435 3730 ft 163 kts 25°
2026-05-04 19:08 48.97857 10.94147 3736 ft 164 kts 25°
2026-05-04 19:08 48.98897 10.94859 3737 ft 164 kts 25°
2026-05-04 19:08 48.99940 10.95577 3733 ft 165 kts 26°
2026-05-04 19:08 49.00980 10.96299 3716 ft 163 kts 25°
2026-05-04 19:09 49.01996 10.97000 3722 ft 162 kts 25°
2026-05-04 19:09 49.03017 10.97699 3710 ft 162 kts 25°
2026-05-04 19:09 49.04074 10.98347 3717 ft 162 kts 22°
2026-05-04 19:09 49.05133 10.98949 3717 ft 162 kts 22°
2026-05-04 19:10 49.06215 10.99566 3564 ft 170 kts 22°
2026-05-04 19:10 49.07323 11.00206 3525 ft 169 kts 22°
2026-05-04 19:10 49.08419 11.00842 3511 ft 168 kts 22°
2026-05-04 19:10 49.09504 11.01476 3494 ft 166 kts 22°
2026-05-04 19:11 49.10579 11.02105 3502 ft 165 kts 22°
2026-05-04 19:11 49.11654 11.02736 3504 ft 165 kts 22°
2026-05-04 19:11 49.12728 11.03367 3495 ft 165 kts 22°
2026-05-04 19:11 49.13767 11.03976 3505 ft 166 kts 22°
2026-05-04 19:12 49.14841 11.04606 3492 ft 165 kts 22°
2026-05-04 19:12 49.16955 11.05853 3489 ft 164 kts 22°
2026-05-04 19:12 49.18020 11.06482 3485 ft 164 kts 22°
2026-05-04 19:13 49.19084 11.07111 3487 ft 164 kts 22°
2026-05-04 19:13 49.20144 11.07736 3484 ft 164 kts 22°
2026-05-04 19:13 49.21204 11.08361 3487 ft 163 kts 22°
2026-05-04 19:13 49.22260 11.08984 3492 ft 162 kts 22°
2026-05-04 19:14 49.23315 11.09607 3494 ft 163 kts 22°
2026-05-04 19:14 49.24355 11.10223 3493 ft 162 kts 22°
2026-05-04 19:14 49.25411 11.10846 3491 ft 163 kts 22°
2026-05-04 19:14 49.26466 11.11471 3487 ft 163 kts 22°
2026-05-04 19:15 49.27508 11.12089 3492 ft 163 kts 22°
2026-05-04 19:15 49.28548 11.12700 3494 ft 163 kts 22°
2026-05-04 19:15 49.29629 11.13339 3349 ft 171 kts 22°
2026-05-04 19:15 49.30754 11.14009 3184 ft 175 kts 22°
2026-05-04 19:16 49.31847 11.14637 3062 ft 173 kts 16°
2026-05-04 19:16 49.33014 11.14963 3034 ft 168 kts
2026-05-04 19:16 49.34128 11.15187 3019 ft 165 kts
2026-05-04 19:16 49.35254 11.15380 2968 ft 165 kts
2026-05-04 19:17 49.36411 11.15570 2826 ft 169 kts
2026-05-04 19:17 49.37492 11.15748 2690 ft 170 kts
2026-05-04 19:17 49.38670 11.15958 2535 ft 171 kts
2026-05-04 19:17 49.39853 11.16172 2391 ft 172 kts
2026-05-04 19:18 49.40976 11.16372 2248 ft 174 kts
2026-05-04 19:18 49.42114 11.16592 2109 ft 165 kts
2026-05-04 19:18 49.43219 11.16802 2043 ft 156 kts
2026-05-04 19:18 49.44264 11.17007 2018 ft 147 kts
2026-05-04 19:19 49.45236 11.16925 2026 ft 135 kts 349°
2026-05-04 19:19 49.46140 11.16633 2041 ft 129 kts 349°
2026-05-04 19:19 49.46963 11.16355 1973 ft 121 kts 345°
2026-05-04 19:19 49.47699 11.16033 1888 ft 113 kts 345°
2026-05-04 19:20 49.48347 11.15687 1808 ft 96 kts 339°
2026-05-04 19:20 49.48881 11.15194 1715 ft 92 kts 322°
2026-05-04 19:20 49.49239 11.14419 1659 ft 94 kts 288°
2026-05-04 19:20 49.49317 11.13403 1581 ft 97 kts 276°
2026-05-04 19:21 49.49409 11.12346 1476 ft 104 kts 278°
2026-05-04 19:21 49.49508 11.11253 1340 ft 96 kts 282°
2026-05-04 19:21 49.49619 11.10264 1179 ft 91 kts 281°
2026-05-04 19:21 49.49708 11.09352 1065 ft 81 kts 283°
2026-05-04 19:22 49.49785 11.08649 1033 ft 59 kts 278°
2026-05-04 19:22 49.49835 11.08154 1026 ft 41 kts 280°
2026-05-04 19:22 49.49868 11.07809 1022 ft 15 kts 271°
2026-05-04 19:22 49.49866 11.07661 1020 ft 17 kts 229°
2026-05-04 19:23 49.49778 11.07688 1020 ft 11 kts 155°
2026-05-04 19:23 49.49767 11.07695 1020 ft 0 kts 153°
2026-05-04 19:24 49.49766 11.07696 1020 ft 0 kts 154°
2026-05-04 19:24 49.49757 11.07703 1020 ft 7 kts 154°
2026-05-04 19:24 49.49682 11.07757 1021 ft 11 kts 155°
2026-05-04 19:25 49.49597 11.07739 1021 ft 17 kts 239°
2026-05-04 19:25 49.49611 11.07517 1019 ft 25 kts 279°
2026-05-04 19:25 49.49636 11.07269 1019 ft 21 kts 274°
2026-05-04 19:25 49.49587 11.07206 1020 ft 4 kts 185°
2026-05-04 19:26 49.49526 11.07197 1020 ft 14 kts 190°
2026-05-04 19:26 49.49511 11.07082 1020 ft 16 kts 278°
2026-05-04 19:26 49.49520 11.06931 1020 ft 12 kts 244°
2026-05-04 19:26 49.49454 11.06889 1020 ft 10 kts 249°
2026-05-04 19:27 49.49431 11.06883 1020 ft 0 kts 76°